• în România
  • Lista ţărilor
  • Pe 7 zile
  • Temperatura apei
  • Hartă satelitară
  • Meteo pe hartă
  • Widget-uri
  • user-avatar
    Intrare

    Meteo pe oră la Dzierzkow

    Astăzi, 21 Octombrie, Duminică

    Timp Temperatura Precipitaţii Vânt Presiune Umiditate
    00:00 +7°C° 0.1 mm 2 m/s 750 mmHg 77%
    01:00 +7°C° 0.1 mm 2 m/s 750 mmHg 79%
    02:00 +7°C° 0.1 mm 2 m/s 749 mmHg 82%
    03:00 +6°C° 0.1 mm 2 m/s 749 mmHg 85%
    04:00 +6°C° 0.1 mm 2 m/s 749 mmHg 88%
    05:00 +6°C° 0 mm 2 m/s 749 mmHg 89%
    06:00 +7°C° 0 mm 1 m/s 749 mmHg 90%
    07:00 +7°C° 0 mm 1 m/s 750 mmHg 91%
    08:00 +8°C° 0 mm 1 m/s 750 mmHg 85%
    09:00 +10°C° 0 mm 1 m/s 750 mmHg 79%
    10:00 +10°C° 0 mm 2 m/s 750 mmHg 73%
    11:00 +12°C° 0 mm 1 m/s 750 mmHg 69%
    12:00 +12°C° 0 mm 1 m/s 750 mmHg 65%
    13:00 +13°C° 0 mm 1 m/s 750 mmHg 61%
    14:00 +13°C° 0 mm 1 m/s 750 mmHg 63%
    15:00 +13°C° 0 mm 1 m/s 750 mmHg 64%
    16:00 +12°C° 0 mm 1 m/s 749 mmHg 66%
    17:00 +11°C° 0 mm 1 m/s 750 mmHg 71%
    18:00 +10°C° 0 mm 1 m/s 750 mmHg 77%
    19:00 +8°C° 0 mm 1 m/s 750 mmHg 82%
    20:00 +8°C° 0 mm 1 m/s 750 mmHg 83%
    21:00 +8°C° 0 mm 1 m/s 750 mmHg 84%
    22:00 +7°C° 0 mm 1 m/s 750 mmHg 85%
    23:00 +7°C° 0 mm 1 m/s 750 mmHg 86%

    Mâine, 22 Octombrie, Luni

    Timp Temperatura Precipitaţii Vânt Presiune Umiditate
    00:00 +7°C° 0 mm 1 m/s 750 mmHg 86%
    01:00 +7°C° 0 mm 1 m/s 750 mmHg 86%
    02:00 +6°C° 0 mm 1 m/s 749 mmHg 86%
    03:00 +6°C° 0 mm 1 m/s 749 mmHg 86%
    04:00 +6°C° 0 mm 1 m/s 749 mmHg 86%
    05:00 +6°C° 0 mm 1 m/s 749 mmHg 86%
    06:00 +6°C° 0 mm 1 m/s 749 mmHg 86%
    07:00 +6°C° 0 mm 1 m/s 749 mmHg 85%
    08:00 +8°C° 0 mm 1 m/s 749 mmHg 77%
    09:00 +10°C° 0 mm 1 m/s 749 mmHg 68%
    10:00 +12°C° 0 mm 1 m/s 749 mmHg 60%
    11:00 +13°C° 0 mm 2 m/s 749 mmHg 56%
    12:00 +14°C° 0 mm 2 m/s 748 mmHg 52%
    13:00 +14°C° 0 mm 3 m/s 748 mmHg 48%
    14:00 +13°C° 0 mm 3 m/s 748 mmHg 53%
    15:00 +12°C° 0 mm 3 m/s 748 mmHg 59%
    16:00 +12°C° 0 mm 3 m/s 747 mmHg 65%
    17:00 +11°C° 0.2 mm 3 m/s 748 mmHg 71%
    18:00 +10°C° 0.2 mm 4 m/s 748 mmHg 78%
    19:00 +8°C° 0.2 mm 4 m/s 749 mmHg 85%
    20:00 +8°C° 0.1 mm 4 m/s 749 mmHg 85%
    21:00 +7°C° 0.1 mm 4 m/s 749 mmHg 85%
    22:00 +7°C° 0.1 mm 4 m/s 749 mmHg 85%
    23:00 +7°C° 0 mm 3 m/s 750 mmHg 87%

    Poimâine, 23 Octombrie, Marţi

    Timp Temperatura Precipitaţii Vânt Presiune Umiditate
    00:00 +5°C° 0 mm 3 m/s 750 mmHg 89%
    01:00 +4°C° 0 mm 3 m/s 750 mmHg 91%
    02:00 +3°C° 0 mm 3 m/s 749 mmHg 90%
    03:00 +3°C° 0 mm 3 m/s 749 mmHg 90%
    04:00 +3°C° 0 mm 3 m/s 749 mmHg 90%
    05:00 +3°C° 0 mm 3 m/s 749 mmHg 89%
    06:00 +3°C° 0 mm 3 m/s 748 mmHg 88%
    07:00 +3°C° 0 mm 3 m/s 748 mmHg 87%
    08:00 +4°C° 0 mm 4 m/s 747 mmHg 80%
    09:00 +6°C° 0 mm 5 m/s 747 mmHg 72%
    10:00 +7°C° 0 mm 6 m/s 746 mmHg 65%
    11:00 +6°C° 0.1 mm 7 m/s 745 mmHg 64%
    12:00 +8°C° 0.1 mm 7 m/s 744 mmHg 64%
    13:00 +7°C° 0.1 mm 8 m/s 743 mmHg 63%
    14:00 +7°C° 0.5 mm 8 m/s 742 mmHg 66%
    15:00 +6°C° 0.5 mm 9 m/s 740 mmHg 70%
    16:00 +6°C° 0.5 mm 9 m/s 739 mmHg 73%
    17:00 +7°C° 0.3 mm 10 m/s 738 mmHg 75%
    18:00 +7°C° 0.3 mm 10 m/s 737 mmHg 76%
    19:00 +8°C° 0.3 mm 11 m/s 736 mmHg 78%
    20:00 +8°C° 0.5 mm 11 m/s 736 mmHg 78%
    21:00 +9°C° 0.5 mm 11 m/s 735 mmHg 79%
    22:00 +9°C° 0.5 mm 11 m/s 735 mmHg 79%
    23:00 +9°C° 0.6 mm 11 m/s 735 mmHg 78%

    24 Octombrie, Miercuri

    Timp Temperatura Precipitaţii Vânt Presiune Umiditate
    00:00 +9°C° 0.6 mm 10 m/s 734 mmHg 78%
    01:00 +8°C° 0.6 mm 10 m/s 734 mmHg 77%
    02:00 +8°C° 0.2 mm 10 m/s 735 mmHg 75%
    03:00 +7°C° 0.2 mm 10 m/s 735 mmHg 73%
    04:00 +6°C° 0.2 mm 10 m/s 735 mmHg 72%
    05:00 +6°C° 0.1 mm 9 m/s 735 mmHg 72%
    06:00 +5°C° 0.1 mm 8 m/s 736 mmHg 71%
    07:00 +4°C° 0.1 mm 8 m/s 737 mmHg 71%
    08:00 +4°C° 0.1 mm 8 m/s 737 mmHg 68%
    09:00 +5°C° 0.1 mm 9 m/s 737 mmHg 65%
    10:00 +5°C° 0.1 mm 9 m/s 738 mmHg 62%
    11:00 +5°C° 0.1 mm 9 m/s 738 mmHg 58%
    12:00 +6°C° 0.1 mm 9 m/s 738 mmHg 55%
    13:00 +6°C° 0.1 mm 9 m/s 738 mmHg 51%
    14:00 +6°C° 0 mm 8 m/s 738 mmHg 52%
    15:00 +6°C° 0 mm 7 m/s 738 mmHg 52%
    16:00 +6°C° 0 mm 7 m/s 739 mmHg 53%
    17:00 +5°C° 0 mm 6 m/s 739 mmHg 56%
    18:00 +5°C° 0 mm 6 m/s 740 mmHg 59%
    19:00 +4°C° 0 mm 6 m/s 740 mmHg 62%
    20:00 +5°C° 0 mm 5 m/s 740 mmHg 65%
    21:00 +3°C° 0 mm 5 m/s 741 mmHg 68%
    22:00 +3°C° 0 mm 5 m/s 741 mmHg 72%
    23:00 +3°C° 0 mm 5 m/s 741 mmHg 75%

    25 Octombrie, Joi

    Timp Temperatura Precipitaţii Vânt Presiune Umiditate
    00:00 +3°C° 0 mm 5 m/s 741 mmHg 78%
    01:00 +4°C° 0 mm 4 m/s 741 mmHg 81%
    02:00 +5°C° 0.1 mm 5 m/s 740 mmHg 82%
    03:00 +5°C° 0.1 mm 5 m/s 740 mmHg 83%
    04:00 +6°C° 0.1 mm 5 m/s 740 mmHg 83%
    05:00 +7°C° 0.6 mm 5 m/s 739 mmHg 86%
    06:00 +8°C° 0.6 mm 6 m/s 739 mmHg 88%
    07:00 +8°C° 0.6 mm 6 m/s 738 mmHg 90%
    08:00 +9°C° 0.2 mm 7 m/s 738 mmHg 87%
    09:00 +10°C° 0.2 mm 7 m/s 738 mmHg 85%
    10:00 +10°C° 0.2 mm 8 m/s 738 mmHg 82%
    11:00 +10°C° 0.1 mm 8 m/s 738 mmHg 78%
    12:00 +11°C° 0.1 mm 8 m/s 738 mmHg 74%
    13:00 +11°C° 0.1 mm 9 m/s 738 mmHg 71%
    14:00 +10°C° 0 mm 8 m/s 738 mmHg 73%
    15:00 +10°C° 0 mm 7 m/s 738 mmHg 75%
    16:00 +10°C° 0 mm 6 m/s 739 mmHg 77%
    17:00 +9°C° 0 mm 6 m/s 739 mmHg 78%
    18:00 +9°C° 0 mm 6 m/s 739 mmHg 79%
    19:00 +9°C° 0 mm 6 m/s 739 mmHg 81%
    20:00 +9°C° 0 mm 5 m/s 739 mmHg 82%
    21:00 +9°C° 0 mm 5 m/s 739 mmHg 83%
    22:00 +8°C° 0 mm 5 m/s 739 mmHg 84%
    23:00 +8°C° 0 mm 5 m/s 739 mmHg 85%

    26 Octombrie, Vineri

    Timp Temperatura Precipitaţii Vânt Presiune Umiditate
    00:00 +8°C° 0 mm 4 m/s 739 mmHg 86%
    01:00 +7°C° 0 mm 4 m/s 738 mmHg 87%
    02:00 +7°C° 0 mm 4 m/s 738 mmHg 87%
    03:00 +7°C° 0 mm 4 m/s 738 mmHg 88%
    04:00 +7°C° 0 mm 3 m/s 738 mmHg 89%
    05:00 +7°C° 0 mm 3 m/s 737 mmHg 89%
    06:00 +7°C° 0 mm 3 m/s 737 mmHg 89%
    07:00 +5°C° 0 mm 3 m/s 737 mmHg 90%
    08:00 +8°C° 0 mm 3 m/s 737 mmHg 83%
    09:00 +8°C° 0 mm 4 m/s 737 mmHg 77%
    10:00 +10°C° 0 mm 4 m/s 737 mmHg 70%
    11:00 +11°C° 0 mm 4 m/s 736 mmHg 68%
    12:00 +11°C° 0 mm 4 m/s 735 mmHg 66%
    13:00 +12°C° 0 mm 4 m/s 735 mmHg 64%
    14:00 +11°C° 0 mm 3 m/s 734 mmHg 67%
    15:00 +11°C° 0 mm 3 m/s 734 mmHg 69%
    16:00 +12°C° 0 mm 2 m/s 733 mmHg 71%
    17:00 +10°C° 0 mm 2 m/s 733 mmHg 75%
    18:00 +9°C° 0 mm 2 m/s 733 mmHg 78%
    19:00 +8°C° 0 mm 2 m/s 733 mmHg 81%
    20:00 +8°C° 0 mm 2 m/s 732 mmHg 83%
    21:00 +8°C° 0 mm 2 m/s 732 mmHg 84%
    22:00 +8°C° 0 mm 2 m/s 732 mmHg 85%
    23:00 +8°C° 0 mm 2 m/s 732 mmHg 86%
    Arată mai mult